Temperature
21 20 19 19 18 19 21 24 25 25 26 26 26 26 25 24 23 23 24 24 24 23 22 21 20 20 20 21 21 21 21 21 21 21 20 20 20 20 20 20 20 19 19 19 19 20 20 19 19
21 20 19 19 19 22 24 25 25 26 26 26 26 26 25 24 24 24 24 24 24 23 22 21 21 21 21 21 21 21 21 21 21 21 21 21 21 20 20 20 20 20 20 20 20 20 20 20 20
21 21 20 19 20 22 25 26 25 26 27 26 26 25 25 24 24 24 25 24 23 23 22 22 21 21 21 21 21 21 21 21 21 21 21 21 20 20 20 20 20 20 20 20 20 20 20 20 20
22 21 21 19 22 22 24 25 25 26 27 27 26 24 24 24 25 25 25 24 23 23 22 22 21 21 21 21 21 21 21 21 21 21 21 20 20 20 20 20 20 20 20 20 20 20 19 19 19
22 21 20 20 22 23 24 25 25 26 26 27 26 24 24 25 25 25 25 24 23 22 22 22 21 21 21 21 21 21 21 21 21 20 20 20 20 20 20 20 20 20 20 20 20 20 20 19 19
22 20 20 21 23 24 25 25 25 25 26 26 26 24 24 25 24 24 24 24 23 22 22 21 21 21 21 21 21 20 21 21 20 20 20 20 20 20 20 20 20 20 20 20 20 20 20 20 19
22 19 21 23 23 24 26 25 25 25 25 26 26 25 24 25 24 24 23 23 22 21 21 21 20 20 20 20 20 20 20 20 20 20 20 20 20 20 19 20 19 19 19 19 19 19 19 19 19
24 19 23 22 24 25 26 25 26 25 26 27 27 25 25 26 24 23 22 21 21 20 20 20 20 19 19 19 19 19 19 19 19 19 20 20 19 19 19 19 19 19 19 19 19 19 19 19 19
24 19 20 23 25 26 26 25 27 27 26 27 27 27 26 25 23 22 21 20 19 19 19 19 19 18 19 19 19 19 19 19 19 19 19 19 19 19 19 19 19 19 19 19 19 18 18 18 18
23 19 21 23 25 26 26 25 27 26 25 26 27 26 24 24 23 22 21 20 19 18 18 18 18 18 18 18 18 18 18 18 18 18 18 18 18 19 19 19 19 18 18 18 18 18 18 18 18
22 21 22 24 26 26 26 26 27 25 25 26 26 25 24 22 22 21 20 20 19 18 18 18 18 19 19 19 19 19 19 18 18 18 18 18 18 18 18 18 18 18 18 18 18 18 17 17 17
23 22 24 25 27 26 26 27 25 23 23 24 25 25 23 22 21 20 20 19 19 19 19 20 20 20 20 20 20 20 20 19 19 19 18 18 18 18 18 18 18 18 18 18 17 17 17 17 17
23 23 25 26 26 25 24 23 21 19 20 22 23 22 21 20 20 19 19 20 20 20 21 20 21 21 20 20 20 20 20 19 19 19 18 18 17 17 17 17 17 17 17 17 17 17 17 17 17
24 24 24 25 25 24 21 19 18 17 18 19 19 18 19 19 19 19 19 20 20 21 21 21 20 20 20 19 19 19 19 19 19 18 18 17 17 17 17 17 17 17 17 17 17 17 17 17 17
24 22 22 23 23 23 20 17 17 17 17 17 16 17 17 18 18 19 19 20 20 21 20 20 20 19 19 19 19 18 19 18 18 18 18 17 17 17 17 17 17 17 17 17 17 17 17 17 17
23 22 22 22 19 20 19 16 17 16 16 15 15 16 16 17 17 18 18 19 19 19 19 19 19 18 18 18 18 18 19 19 18 18 18 18 17 17 17 17 17 17 17 17 17 16 16 16 16
22 21 22 21 19 18 17 16 16 16 15 15 14 15 16 16 17 17 17 18 18 18 19 19 18 17 17 18 18 18 18 18 18 18 18 18 17 17 17 17 17 17 16 16 16 16 16 16 16
22 22 23 21 18 17 16 16 16 15 15 14 14 15 15 16 16 17 17 18 18 18 18 18 18 17 17 18 18 18 18 18 18 18 18 17 17 17 17 17 16 16 16 16 15 15 15 15 15
23 23 23 21 18 17 16 15 15 15 14 14 14 15 15 16 16 17 18 18 18 18 18 17 17 17 17 17 18 18 18 18 18 18 18 17 17 17 17 17 16 16 15 15 15 15 15 15 15
23 24 22 19 19 17 16 15 15 15 14 14 14 15 16 17 17 17 17 17 17 17 17 17 16 17 17 17 17 17 17 17 18 18 18 18 17 17 17 17 17 16 15 15 15 15 15 15 15
24 24 23 20 18 17 17 16 15 15 14 14 14 15 15 16 16 16 16 16 16 16 16 16 16 16 16 17 17 17 17 17 18 18 18 18 17 17 17 17 17 16 16 15 15 15 15 15 15
23 24 24 22 19 17 18 17 16 15 14 14 14 14 15 15 16 16 16 16 16 17 17 17 17 17 17 17 17 16 16 17 17 17 17 17 17 17 17 17 17 16 16 16 16 15 15 15 15
24 22 22 21 20 18 18 17 16 15 14 14 14 14 14 15 15 16 16 16 16 16 17 17 17 16 16 16 16 16 15 15 15 15 16 16 17 17 17 17 17 16 16 16 16 16 16 15 15
23 21 19 17 17 18 18 18 17 15 15 14 14 14 14 15 15 16 16 16 16 16 16 16 16 16 16 15 15 15 15 15 15 15 15 15 15 16 16 16 17 16 16 16 16 16 16 16 15
21 20 18 19 18 18 18 18 17 16 16 15 15 15 15 15 15 16 16 16 16 16 16 16 16 16 15 15 15 14 14 14 14 14 14 14 14 14 14 15 15 16 16 16 15 15 16 16 16
21 20 19 20 19 17 17 17 16 16 16 16 16 15 15 15 15 16 16 16 15 15 15 15 15 15 15 14 14 14 14 14 14 14 14 14 14 14 14 13 13 13 14 15 15 15 15 15 16
22 19 18 17 18 17 17 17 16 16 15 15 15 15 15 15 15 15 15 15 15 15 14 14 14 14 14 14 14 14 14 13 13 13 13 13 13 13 13 13 13 12 12 13 13 14 14 14 15
20 18 16 17 18 18 18 17 14 14 14 14 14 15 15 15 15 15 15 14 14 14 14 14 14 14 14 14 14 14 13 13 13 13 13 12 12 12 12 12 12 12 12 12 12 12 13 13 13
19 18 15 14 15 17 17 15 14 13 13 13 14 15 15 15 15 14 14 14 13 13 13 13 13 13 13 13 13 13 13 13 13 13 13 13 12 12 12 12 12 11 12 11 12 11 11 11 12
18 17 16 17 16 14 14 14 13 13 13 14 14 15 15 14 14 14 13 13 13 13 13 13 13 13 13 13 13 12 12 12 12 12 12 12 12 12 12 12 11 11 11 11 11 11 11 11 11
Wind_Speed
17 14 4 3 2 1 5 4 3 4 1 1 3 4 3 5 5 4 1 10 15 15 17 21 22 21 20 20 19 19 19 19 18 18 18 17 17 16 16 15 14 13 12 11 11 11 11 10 10
10 6 2 3 2 3 5 3 3 4 2 3 2 3 2 1 1 3 5 8 16 15 17 20 23 22 21 20 19 19 19 19 18 18 17 17 16 16 16 16 15 13 12 12 11 10 11 11 10
7 3 4 3 1 4 6 4 5 4 3 2 2 3 2 3 4 7 7 12 15 14 17 21 25 23 21 20 19 18 18 17 17 17 16 16 15 15 15 14 14 13 12 10 10 10 9 9 9
5 3 4 3 5 6 6 7 4 5 4 0 3 3 2 1 8 8 13 15 17 14 15 20 24 23 21 19 18 17 16 15 14 14 13 13 12 12 12 11 11 11 10 9 8 8 8 8 8
3 4 3 3 6 6 6 6 5 4 3 1 3 3 1 2 7 12 15 16 16 13 12 16 23 22 20 18 17 16 14 13 12 11 10 10 9 9 9 9 9 8 8 8 8 9 9 9 9
4 4 3 4 7 7 6 4 3 4 3 1 3 3 1 4 8 11 13 12 11 11 9 12 19 19 18 16 15 14 13 12 11 10 10 9 8 8 9 9 9 9 9 10 10 10 10 10 10
5 4 3 4 6 7 5 2 3 4 4 3 5 4 1 3 6 9 9 8 8 7 6 5 11 14 16 15 14 13 13 13 12 12 11 11 11 11 11 12 12 11 11 12 12 12 12 12 12
5 4 2 3 5 7 5 3 4 4 6 2 4 6 4 5 12 12 12 10 8 6 5 4 5 7 9 11 14 14 14 14 14 14 14 13 13 13 13 13 13 14 14 14 14 15 15 15 14
5 4 3 5 4 7 5 5 5 3 4 4 3 3 4 17 18 15 13 10 7 5 4 4 4 3 4 6 10 13 14 15 16 15 16 15 13 13 13 14 15 16 16 16 16 17 17 16 15
5 4 9 6 4 6 8 6 5 4 5 5 2 5 14 19 18 16 14 11 8 6 4 5 4 3 1 4 5 7 9 11 13 13 13 13 11 12 12 12 16 17 18 18 18 19 18 17 14
6 7 6 7 7 6 6 6 3 3 7 6 2 8 17 17 16 15 14 13 11 9 6 4 2 0 2 3 4 5 6 6 7 9 10 9 8 9 11 10 12 14 16 15 16 17 15 14 13
4 8 7 7 5 4 4 5 4 4 6 7 5 12 16 17 16 16 16 15 13 11 7 4 5 5 6 7 6 6 5 5 6 8 10 8 5 6 8 8 11 11 12 12 12 10 12 14 15
6 7 6 9 10 6 3 8 7 12 12 14 17 17 17 17 16 16 16 15 14 10 7 7 10 10 9 8 6 5 5 5 7 10 11 12 7 8 7 7 9 10 11 9 7 7 8 7 9
6 7 10 10 9 3 12 12 9 11 13 19 20 18 16 16 15 14 13 12 11 10 11 11 10 9 7 6 5 5 4 5 7 9 12 13 11 7 8 7 6 6 8 9 7 6 5 5 5
4 7 10 6 8 1 12 16 12 11 12 18 18 16 16 13 11 8 5 5 4 4 5 5 5 5 6 6 5 4 4 4 4 7 10 11 11 9 7 7 6 6 7 6 4 3 3 3 4
4 5 7 8 13 9 12 9 11 10 11 14 14 13 12 11 10 8 6 5 4 4 3 4 3 2 2 2 3 2 1 1 3 6 8 10 12 11 7 6 5 4 4 3 3 3 3 3 3
5 5 5 7 14 8 10 9 8 9 9 12 11 10 10 9 9 8 7 7 6 5 5 4 4 3 2 2 1 1 1 2 4 5 6 9 11 11 7 5 4 4 3 3 3 2 2 3 4
5 4 3 5 7 11 14 10 8 9 9 10 9 9 9 10 9 8 8 8 8 7 7 6 5 5 5 4 3 4 4 3 4 4 6 9 9 10 7 5 5 5 3 3 3 3 2 3 3
4 2 2 4 3 8 12 11 9 7 9 10 9 8 9 8 8 10 11 11 11 11 10 9 8 8 6 5 4 4 3 5 5 5 6 8 8 9 7 6 6 5 5 5 5 3 3 2 1
4 1 3 4 5 5 8 10 8 8 7 7 7 9 10 10 12 13 12 12 10 9 9 8 8 8 7 5 3 3 4 4 5 5 4 5 7 8 7 8 7 7 5 5 5 4 3 2 2
1 2 3 6 4 4 6 5 5 5 5 6 7 6 8 8 9 9 8 8 7 7 7 6 6 6 6 6 4 4 3 4 4 5 5 4 5 6 6 8 8 8 8 7 7 6 6 4 3
3 3 4 6 7 4 4 3 3 4 3 2 3 5 6 6 5 5 5 5 5 5 5 6 6 5 6 6 4 4 4 4 4 5 6 8 5 4 4 5 7 8 8 8 8 7 5 5 4
3 3 3 3 5 4 3 4 3 5 3 3 2 2 4 5 5 6 6 6 6 6 6 5 5 5 4 4 3 2 2 2 3 4 5 7 7 6 5 4 4 6 7 9 9 9 8 6 5
3 6 7 6 5 3 4 2 3 3 5 6 5 5 5 6 7 8 8 8 8 7 7 6 5 5 4 3 2 2 2 2 2 3 4 4 4 4 7 7 5 4 5 8 9 10 11 9 7
8 7 6 7 6 3 3 2 0 1 4 6 7 7 6 7 7 8 9 9 9 10 9 8 7 7 7 6 6 6 6 5 4 4 3 3 3 3 4 4 5 5 5 6 7 9 10 10 9
4 6 6 2 3 4 4 2 2 1 4 6 5 4 4 6 7 9 10 10 10 11 10 10 9 10 9 8 9 8 8 5 5 6 5 4 4 4 4 4 3 4 6 5 6 8 9 9 10
3 4 4 6 2 2 4 3 4 4 5 4 3 1 3 6 8 9 9 9 9 10 11 11 11 11 11 10 10 9 9 8 8 8 6 6 6 5 5 4 4 4 3 5 5 5 7 8 9
6 6 5 4 2 2 5 4 5 8 5 3 3 4 7 8 9 10 9 9 9 9 10 10 10 11 12 11 10 9 9 9 9 8 9 8 8 7 6 6 5 5 4 3 4 5 5 7 8
7 6 6 5 4 3 3 2 3 4 3 4 4 5 7 9 10 10 8 8 10 10 10 10 11 11 11 12 12 11 12 11 9 9 11 11 10 9 8 7 6 6 5 5 5 5 6 7 7
5 5 4 3 2 2 1 4 3 1 1 1 4 7 8 9 10 9 10 10 10 11 12 11 11 11 12 12 12 12 12 12 11 11 13 12 12 11 10 8 7 7 7 6 7 7 6 6 6
Wind_Direction
137 137 136 140 83 19 267 255 259 302 279 230 137 135 149 166 191 231 13 134 136 146 156 165 163 161 157 156 159 159 157 154 152 150 151 152 155 159 161 162 163 163 164 161 158 162 161 159 160
134 146 130 88 75 335 287 262 267 271 236 217 166 122 108 191 112 114 129 146 145 150 157 165 167 165 163 161 163 164 162 158 156 155 156 159 161 163 165 167 170 169 165 165 165 167 169 168 170
152 150 109 88 172 226 271 263 255 291 296 213 147 99 137 192 162 170 171 152 147 153 160 168 170 169 168 167 168 169 167 164 161 160 162 165 165 165 166 169 174 175 173 174 175 177 178 179 181
135 73 67 68 257 242 242 258 268 303 319 224 129 105 120 201 168 168 153 153 151 156 160 170 172 173 172 172 172 172 170 167 165 166 168 169 169 171 172 174 178 181 185 189 192 194 193 194 195
73 89 53 323 270 264 257 265 253 272 295 350 126 147 184 33 124 139 151 155 155 153 156 172 173 175 176 177 176 176 172 170 171 174 176 176 176 178 182 187 192 196 199 203 206 207 204 203 206
75 75 78 286 281 282 279 284 296 260 260 227 148 168 229 115 128 148 152 152 149 147 144 167 173 177 179 181 182 181 178 175 178 182 186 188 190 192 196 202 207 211 213 215 217 221 220 217 216
128 125 195 247 284 297 294 294 270 272 277 240 169 174 191 142 131 126 117 108 107 121 121 137 166 178 184 187 188 190 190 188 189 192 195 200 205 209 213 214 218 222 226 228 230 233 235 233 232
143 121 233 266 272 283 292 288 263 236 263 261 179 184 199 156 112 97 87 85 93 106 109 93 134 163 179 191 198 200 203 202 202 203 203 207 215 220 224 226 229 232 235 238 240 242 244 244 244
107 85 232 242 250 278 286 280 274 224 255 267 223 193 129 119 112 106 100 97 102 111 91 66 74 101 158 194 209 214 218 217 215 214 213 213 217 225 232 235 237 240 243 245 247 249 251 252 252
110 165 226 232 234 280 293 266 266 268 274 271 268 86 103 118 121 121 120 121 118 113 92 56 51 47 86 216 224 231 232 230 223 219 219 216 213 222 234 243 247 247 248 249 252 253 255 257 255
161 201 238 258 258 267 284 284 272 241 281 276 261 113 121 126 124 122 121 119 114 106 101 80 75 137 219 224 225 228 229 232 224 215 215 214 215 224 236 242 251 255 257 254 251 253 249 246 244
219 243 239 259 259 279 270 304 357 3 332 4 76 124 129 128 126 125 122 119 116 114 121 166 201 212 220 220 216 214 212 215 221 222 216 211 216 223 231 237 240 241 246 249 248 246 245 248 252
243 253 246 243 267 260 21 24 41 21 18 51 70 89 109 114 113 114 120 125 127 130 157 204 212 216 220 221 219 217 213 213 222 226 223 218 222 233 232 234 236 236 237 240 243 246 236 231 241
255 270 278 278 266 183 86 45 41 22 40 64 68 74 83 95 108 115 123 132 142 157 186 209 217 218 225 228 223 227 213 213 225 235 234 230 230 233 237 235 233 238 237 238 235 234 216 208 215
300 302 314 349 341 57 97 52 35 32 54 68 68 71 74 76 80 89 108 146 164 193 214 233 238 228 220 219 218 222 203 195 226 245 245 237 233 234 228 229 229 233 230 224 215 207 181 188 206
346 351 336 356 8 34 80 68 27 26 50 65 63 61 61 55 47 33 13 350 349 344 333 310 298 289 253 230 216 234 218 241 256 258 251 239 232 226 219 218 226 223 207 191 184 173 172 194 206
9 348 335 358 19 45 80 87 37 33 49 59 54 51 48 40 28 12 4 357 355 354 347 333 342 348 320 312 313 323 7 306 272 262 251 241 230 215 201 204 212 197 184 184 182 183 180 194 209
305 325 3 42 26 65 87 88 56 40 53 57 51 44 37 30 15 7 14 15 14 11 7 356 353 353 344 343 346 353 342 300 275 262 248 238 224 206 192 194 194 180 177 189 191 195 196 204 209
263 283 76 93 112 69 82 82 60 50 53 51 41 33 28 20 8 19 21 21 20 17 11 5 1 354 353 349 346 340 318 306 298 273 248 235 220 204 191 191 188 182 190 198 188 178 192 207 171
228 218 96 85 111 101 100 80 66 54 50 42 34 23 17 13 13 14 16 17 16 11 8 8 8 1 355 342 313 287 287 290 286 291 289 258 232 212 201 196 193 188 188 188 186 176 177 197 175
306 200 182 150 106 96 119 82 69 59 49 34 18 8 5 12 6 0 3 2 357 358 356 355 356 352 346 342 334 333 331 322 336 339 334 321 285 251 222 207 197 190 186 191 193 185 178 189 202
294 254 208 159 148 185 181 139 154 134 87 38 356 348 342 341 344 336 334 331 327 323 326 329 332 337 344 356 14 23 10 345 337 331 329 335 333 302 268 238 214 199 192 191 192 191 184 168 188
248 43 75 98 128 85 45 118 162 156 157 189 208 252 278 290 295 292 292 293 295 292 290 290 299 313 327 353 18 39 30 304 299 319 340 352 354 357 351 316 257 224 207 200 189 185 190 184 179
95 69 52 55 71 61 338 101 157 191 178 166 177 196 226 248 265 274 281 285 285 280 271 264 263 268 268 269 252 210 222 255 293 320 337 342 342 352 3 357 338 285 244 218 203 192 190 192 187
57 69 27 11 13 281 312 86 83 187 160 159 170 188 211 231 246 262 270 272 272 276 274 270 267 269 263 261 258 248 243 248 261 274 284 300 313 315 328 345 343 329 294 255 225 204 195 192 191
62 113 139 197 242 291 357 14 316 342 125 129 145 176 217 246 255 262 267 270 274 278 279 278 274 273 268 258 258 256 253 251 255 256 254 261 261 268 276 284 294 310 318 300 247 224 210 197 196
81 74 137 130 134 357 321 342 16 59 77 101 116 142 289 292 292 291 295 297 293 290 286 282 280 279 275 265 259 259 253 247 250 253 251 251 249 255 260 268 274 275 286 304 297 249 229 212 206
72 124 75 83 105 317 321 9 351 342 351 56 51 6 335 324 315 310 309 307 302 294 287 285 276 272 276 278 272 268 259 251 248 251 253 250 250 245 253 259 260 261 250 236 270 284 260 234 225
14 43 79 91 116 139 301 321 349 330 17 42 12 336 317 307 305 299 294 291 293 294 290 283 278 274 274 273 273 274 274 268 252 245 249 250 249 243 238 238 242 251 250 232 220 235 274 259 243
75 55 81 81 29 98 176 263 316 356 71 3 302 294 294 296 297 287 279 284 291 293 292 287 278 271 265 264 264 265 268 271 266 257 252 247 245 245 236 227 228 238 243 234 226 225 230 251 259
Height
1512 1513 1516 1519 1521 1525 1519 1503 1495 1492 1490 1489 1488 1489 1490 1493 1497 1499 1491 1490 1495 1499 1503 1507 1512 1516 1519 1521 1523 1526 1528 1531 1533 1535 1537 1539 1540 1542 1544 1546 1547 1549 1550 1551 1552 1553 1554 1555 1556
1513 1515 1518 1519 1523 1527 1514 1498 1495 1491 1489 1489 1489 1489 1489 1490 1491 1491 1490 1492 1496 1500 1503 1507 1511 1515 1518 1521 1523 1526 1528 1531 1533 1535 1537 1538 1540 1542 1544 1546 1548 1549 1551 1552 1553 1553 1554 1555 1556
1514 1515 1518 1519 1523 1523 1510 1495 1491 1488 1488 1488 1489 1489 1490 1490 1490 1490 1491 1493 1496 1500 1503 1507 1511 1515 1518 1521 1523 1526 1528 1531 1533 1535 1537 1538 1540 1542 1543 1545 1548 1549 1551 1552 1552 1553 1554 1555 1556
1514 1516 1517 1522 1520 1511 1501 1492 1490 1488 1487 1488 1488 1489 1489 1489 1489 1490 1491 1493 1496 1499 1504 1508 1511 1515 1519 1522 1524 1527 1529 1532 1534 1536 1538 1539 1541 1542 1544 1546 1547 1549 1550 1551 1552 1552 1553 1554 1555
1513 1515 1520 1524 1517 1504 1495 1490 1490 1489 1488 1487 1488 1488 1488 1489 1490 1492 1493 1495 1497 1501 1505 1509 1513 1517 1521 1524 1526 1528 1530 1533 1535 1537 1539 1540 1541 1543 1544 1546 1547 1549 1550 1551 1552 1553 1553 1554 1555
1513 1515 1525 1526 1514 1500 1493 1490 1489 1488 1487 1487 1487 1488 1487 1488 1491 1494 1497 1499 1502 1504 1508 1512 1516 1519 1523 1526 1528 1530 1532 1533 1535 1537 1539 1541 1542 1543 1545 1546 1548 1549 1550 1551 1552 1552 1553 1554 1554
1514 1518 1522 1519 1513 1503 1493 1490 1489 1488 1487 1487 1487 1487 1486 1488 1491 1495 1499 1503 1506 1509 1512 1515 1518 1521 1524 1526 1528 1530 1532 1534 1535 1537 1539 1540 1542 1543 1545 1546 1547 1548 1549 1550 1550 1551 1552 1552 1553
1511 1517 1518 1518 1512 1504 1494 1491 1488 1487 1486 1485 1486 1485 1485 1488 1492 1497 1501 1504 1508 1512 1515 1518 1520 1522 1525 1527 1528 1530 1532 1533 1535 1536 1538 1539 1541 1542 1543 1545 1546 1547 1547 1548 1548 1549 1550 1550 1551
1511 1521 1524 1515 1507 1500 1493 1491 1488 1486 1485 1483 1484 1485 1487 1489 1492 1497 1502 1506 1510 1514 1518 1521 1523 1524 1526 1527 1528 1529 1531 1532 1534 1535 1536 1537 1538 1540 1541 1542 1543 1544 1545 1545 1546 1547 1547 1548 1548
1509 1522 1516 1504 1499 1496 1492 1490 1487 1486 1484 1482 1483 1486 1487 1489 1492 1496 1501 1507 1511 1516 1520 1522 1524 1525 1526 1526 1527 1528 1529 1531 1532 1533 1534 1535 1536 1537 1538 1539 1540 1541 1541 1542 1543 1544 1545 1545 1545
1507 1511 1504 1499 1497 1495 1492 1489 1487 1486 1485 1483 1484 1486 1488 1489 1493 1497 1502 1507 1512 1517 1521 1524 1525 1526 1525 1524 1524 1524 1525 1527 1529 1530 1531 1533 1533 1534 1535 1536 1536 1537 1538 1539 1539 1541 1541 1541 1541
1505 1502 1500 1496 1494 1493 1492 1490 1489 1491 1491 1487 1485 1485 1487 1489 1493 1497 1502 1507 1512 1517 1522 1524 1524 1523 1521 1519 1519 1519 1520 1521 1524 1526 1528 1529 1530 1530 1531 1532 1533 1533 1534 1535 1536 1536 1537 1537 1537
1502 1498 1495 1492 1491 1491 1493 1494 1496 1498 1494 1488 1486 1486 1488 1490 1494 1498 1502 1507 1510 1515 1518 1519 1517 1516 1514 1513 1512 1513 1514 1516 1519 1522 1523 1524 1525 1526 1527 1528 1528 1529 1529 1530 1531 1532 1532 1532 1532
1498 1495 1491 1488 1487 1489 1495 1501 1501 1504 1499 1492 1491 1492 1495 1497 1499 1501 1504 1506 1508 1509 1510 1512 1510 1509 1509 1509 1509 1510 1510 1511 1514 1517 1518 1520 1521 1522 1523 1523 1524 1524 1524 1525 1526 1527 1527 1527 1527
1496 1495 1489 1487 1486 1487 1490 1506 1512 1511 1505 1498 1498 1499 1500 1501 1503 1504 1505 1506 1506 1506 1507 1508 1508 1506 1506 1506 1506 1507 1506 1507 1511 1513 1514 1516 1517 1518 1519 1519 1519 1519 1519 1519 1520 1521 1521 1522 1522
1496 1499 1500 1493 1491 1491 1498 1520 1518 1515 1510 1505 1505 1504 1504 1505 1505 1506 1506 1506 1505 1505 1506 1506 1505 1504 1504 1503 1503 1503 1502 1503 1506 1509 1510 1512 1513 1514 1515 1515 1515 1515 1515 1515 1515 1515 1516 1516 1517
1504 1510 1505 1500 1498 1497 1505 1521 1521 1518 1515 1512 1510 1509 1508 1508 1508 1507 1506 1505 1505 1504 1505 1504 1504 1503 1502 1502 1501 1500 1499 1501 1504 1505 1507 1508 1510 1510 1511 1511 1511 1511 1511 1511 1511 1512 1512 1513 1513
1511 1508 1506 1508 1509 1506 1512 1522 1523 1521 1518 1515 1513 1512 1510 1509 1508 1507 1506 1506 1505 1505 1505 1504 1504 1503 1502 1501 1501 1500 1500 1501 1502 1504 1505 1506 1507 1507 1507 1507 1507 1508 1508 1508 1508 1509 1510 1510 1510
1503 1504 1506 1508 1511 1514 1520 1524 1525 1523 1520 1517 1515 1513 1511 1510 1510 1509 1508 1508 1507 1507 1506 1506 1505 1504 1502 1501 1501 1500 1500 1500 1501 1503 1503 1504 1504 1504 1504 1504 1504 1505 1505 1505 1506 1506 1506 1507 1507
1500 1502 1507 1512 1512 1516 1523 1525 1526 1524 1522 1520 1518 1515 1514 1513 1512 1512 1512 1512 1511 1510 1509 1508 1507 1505 1503 1502 1501 1500 1499 1499 1499 1500 1500 1501 1501 1502 1501 1501 1501 1502 1502 1502 1503 1503 1503 1503 1503
1498 1500 1502 1509 1514 1516 1520 1528 1528 1527 1525 1524 1521 1520 1519 1519 1518 1517 1516 1515 1514 1513 1511 1510 1508 1507 1505 1503 1501 1500 1498 1497 1496 1496 1496 1497 1498 1498 1499 1498 1498 1498 1499 1499 1499 1500 1499 1499 1499
1501 1493 1494 1500 1514 1522 1521 1534 1532 1530 1530 1528 1527 1525 1524 1523 1522 1522 1520 1518 1517 1515 1514 1512 1509 1507 1504 1502 1499 1498 1496 1494 1493 1492 1491 1491 1492 1493 1493 1494 1494 1495 1495 1495 1495 1496 1496 1495 1495
1492 1491 1494 1499 1509 1521 1520 1530 1535 1531 1533 1532 1530 1529 1528 1526 1525 1524 1522 1520 1519 1517 1514 1512 1509 1507 1504 1500 1498 1496 1494 1492 1491 1489 1488 1487 1486 1486 1487 1488 1489 1489 1490 1491 1491 1491 1492 1492 1492
1489 1495 1502 1511 1519 1530 1525 1527 1534 1532 1530 1531 1531 1530 1529 1527 1526 1525 1523 1521 1519 1517 1514 1511 1508 1505 1502 1499 1496 1494 1492 1490 1488 1486 1484 1482 1481 1480 1480 1481 1481 1482 1484 1486 1487 1487 1488 1488 1488
1494 1509 1528 1531 1537 1535 1525 1528 1534 1527 1526 1527 1529 1529 1529 1528 1527 1525 1523 1520 1518 1515 1512 1509 1505 1502 1499 1496 1493 1491 1489 1486 1484 1482 1480 1478 1477 1476 1474 1474 1474 1475 1476 1478 1480 1482 1482 1483 1483
1500 1509 1530 1539 1542 1537 1529 1531 1532 1525 1526 1527 1528 1528 1529 1528 1526 1524 1521 1519 1515 1512 1508 1505 1501 1498 1495 1492 1489 1487 1484 1482 1480 1478 1476 1474 1473 1472 1471 1469 1468 1468 1468 1469 1471 1474 1476 1477 1478
1501 1512 1514 1530 1533 1542 1535 1529 1528 1526 1527 1528 1528 1528 1528 1527 1525 1522 1519 1515 1511 1507 1503 1500 1496 1493 1490 1487 1484 1481 1479 1477 1475 1473 1471 1470 1468 1467 1466 1465 1464 1462 1462 1461 1462 1464 1467 1470 1471
1503 1511 1521 1531 1540 1544 1537 1536 1541 1533 1530 1529 1528 1528 1527 1524 1521 1518 1514 1511 1507 1504 1499 1495 1491 1488 1485 1482 1478 1475 1473 1470 1468 1466 1465 1464 1463 1462 1461 1460 1459 1458 1457 1456 1455 1455 1457 1460 1463
1512 1516 1526 1536 1537 1544 1547 1547 1538 1536 1532 1530 1529 1527 1525 1521 1518 1514 1511 1508 1504 1500 1496 1492 1487 1483 1479 1476 1472 1469 1466 1464 1461 1458 1457 1457 1456 1456 1455 1454 1453 1453 1452 1451 1450 1450 1448 1450 1454
1513 1519 1524 1533 1539 1544 1550 1551 1536 1534 1531 1529 1527 1524 1521 1518 1514 1510 1507 1503 1499 1495 1490 1486 1481 1477 1473 1469 1465 1462 1459 1456 1453 1450 1448 1447 1447 1447 1447 1447 1447 1446 1446 1446 1445 1444 1444 1444 1445